Location: Sungai Bunut
(2.6333°N, 113.7333°E)
Time: 20:51:24
(UTC+00:00)

Vanguard 3 - Pass Details

Date: 04 December 2023
Orbit: 508 x 3239 km, 33.4° (Epoch: 24 February)

Event Time Altitude Azimuth Distance (km) Brightness Sun altitude
Rises 20:54:02 0° 333° (NNW) 2,633 - -19.8°
Reaches altitude 10° 20:57:05 10° 1° (N) 1,704 - -19.1°
Exits shadow 20:57:29 11° 7° (N) 1,625 8.6 -19.0°
Maximum altitude 20:59:06 14° 35° (NE) 1,500 8.7 -18.6°
Drops below altitude 10° 21:01:15 10° 69° (ENE) 1,827 9.6 -18.1°
Sets 21:04:44 0° 95° (E) 2,979 11.5 -17.3°
